Vertical_Velocity
8 0 4 1 4 3 2 3 -0 -3 -1 2 3 2 2 -3 -2 1 -2 4 2 -0 1 -2 1 -0 -2 -1 -4 -3 -3 -0 -4 -3 3 -2 -3 -2 -1 -1 0 -4 -4
-3 2 1 4 1 3 6 6 6 5 1 -2 1 0 -4 -4 1 2 2 1 -2 -0 -1 2 2 0 0 1 3 4 3 -4 1 2 -1 -4 -1 0 2 1 -1 0 3
-3 1 0 5 4 7 1 0 5 4 6 -1 -4 -1 -3 0 -2 -4 -1 -2 2 1 2 0 -1 -3 -4 0 -1 -7 -0 -3 -4 1 -0 -2 -2 -4 -3 -4 -1 -3 -2
2 1 4 3 1 1 1 1 2 -0 4 11 -11 -2 -1 -4 -4 0 -1 -0 1 2 -2 -1 1 -1 -2 -0 1 -1 -2 0 -5 -3 -4 -0 -2 -2 -1 -3 -0 -3 2
2 0 1 2 4 0 6 -0 1 -1 6 -2 4 -8 -1 -2 -3 -2 -4 3 3 -0 -2 -1 -1 -6 -0 -1 -4 -4 2 2 4 1 0 2 2 4 1 -2 0 -1 1
1 -1 -0 5 4 3 3 3 2 3 4 -0 9 -7 -0 2 -1 -5 -1 -3 -4 1 -4 -3 -1 2 2 3 3 -1 -4 -3 -1 -3 1 6 0 -4 2 -0 1 3 1
-3 4 21 17 10 9 13 5 4 1 6 1 6 -6 2 -3 5 -0 -1 -1 -2 0 -3 -2 0 -0 3 -5 -2 1 -2 -3 -2 -1 -3 1 1 4 1 1 2 -1 2
18 2 12 6 3 -9 21 11 5 -2 -2 4 0 -4 6 -6 6 2 -3 1 0 -1 -0 -2 5 -1 1 2 0 -0 -1 3 -3 -2 0 -1 -1 -3 -2 -1 -0 -1 3
8 -1 5 -5 -4 -17 20 0 -6 13 8 7 -3 2 0 3 1 -1 2 -3 -1 3 2 2 3 0 -2 2 2 3 -1 -0 -3 -4 -2 1 1 -1 0 -5 -2 -4 -3
9 11 7 9 -1 -44 -13 -3 18 5 1 3 1 9 -7 3 4 2 5 4 3 -1 2 -0 3 -4 0 -4 -1 -4 -1 -1 -1 1 -5 -1 -4 -3 -1 2 -1 -1 2
1 3 0 11 -0 -3 -4 -4 12 8 -0 9 8 -0 -0 1 7 1 2 1 5 -2 5 2 -2 0 2 4 -2 0 -3 -6 -1 -2 4 0 -0 -0 -5 -1 -2 -1 -0
5 8 0 4 2 6 -41 3 1 15 9 -9 -2 -5 -2 -5 -4 1 1 3 0 1 -1 -1 -1 -2 -0 -3 -3 1 1 1 1 2 -1 -1 -1 3 3 0 1 2 -3
-2 5 9 7 1 -6 -17 -15 -40 -20 -9 5 5 4 4 5 4 4 4 2 -1 -1 -2 1 -3 -2 -2 -1 -4 -1 -2 -1 -3 -2 -1 -2 0 -3 -3 0 -0 -2 -0
8 9 1 4 -3 -17 -8 -6 0 1 -1 9 7 3 1 2 -1 3 5 -4 -0 -2 -2 -2 0 1 -2 0 -1 -2 -3 -0 -1 1 -1 2 -5 -2 0 3 -1 -1 -3
-2 -0 9 6 3 1 1 -2 1 6 12 -0 -4 1 -2 -1 3 0 0 0 -3 -3 1 1 2 1 -0 0 -4 -4 -1 -0 1 2 2 1 -1 1 1 3 0 0 1
-2 6 -2 -2 7 4 1 7 5 6 0 0 1 2 -0 3 -1 -0 0 -1 -2 -0 2 1 -0 -2 -1 -1 -4 -2 -3 0 0 -0 0 0 0 1 2 1 1 4 2
3 3 1 -1 2 -0 -3 -4 0 1 2 -1 4 2 2 -3 1 -4 2 3 0 3 0 -2 -2 -3 3 -4 -1 -3 -3 -3 -3 -4 1 -1 -1 -2 -1 -0 -1 -1 1
-1 -6 4 1 -2 2 3 3 1 1 -2 1 4 2 -1 1 1 -1 1 1 1 1 -0 0 -1 -4 -3 -1 -2 -1 -2 -2 -2 -3 -2 -1 -1 -1 0 0 -0 -0 -0
1 -2 2 -0 1 -1 -2 -1 -0 1 3 -0 -1 -2 0 0 -3 1 4 3 0 -3 -0 -2 -2 -1 -2 -3 -0 -1 -1 -2 -2 -1 -2 -0 -1 -1 -1 -1 -1 -1 -1
3 -0 2 -1 0 2 4 -1 -1 1 1 1 2 2 -3 -3 -2 1 5 1 -2 -1 -0 -3 -1 -1 0 -0 3 1 -1 1 -0 -2 0 -0 -1 -1 -2 -3 -2 -2 -2
-1 1 1 -2 -0 -3 0 1 0 -2 -2 -3 0 -2 -0 1 5 4 -2 -0 -2 0 -3 -2 1 -3 -2 -0 2 -2 -0 -1 -2 -2 -3 -1 1 1 -0 0 -1 -1 -0
3 1 3 -2 -2 -7 -3 -4 2 0 -2 7 5 4 3 2 -1 1 -2 1 1 -2 1 -1 1 1 -2 -0 -6 -1 2 -1 3 1 2 2 0 -1 1 0 -0 1 2
-2 -2 -1 1 5 3 -3 5 -1 1 6 2 2 1 -3 1 -3 -4 -1 3 3 4 1 -1 0 7 9 -5 6 3 2 3 -1 -1 0 2 2 -0 1 1 1 -0 -2
-3 -1 -0 -2 -4 -1 4 -0 -1 1 -1 -1 0 0 -0 -0 -2 -2 -2 -1 -1 -2 -3 -4 -3 -2 7 -2 -6 -3 -4 -0 0 3 -3 2 0 0 -1 -0 0 1 -2
-2 -1 2 2 2 1 -0 1 1 1 5 2 2 1 1 -1 3 2 1 1 -2 -4 -2 1 -2 -6 -1 1 3 2 -0 -0 -0 -3 -3 0 1 0 -1 -3 -1 -2 -2
-0 -1 1 4 3 0 2 -1 -2 -1 2 -0 1 -1 -1 0 -2 0 3 2 1 1 -4 -2 -5 -1 3 -0 -1 -3 -0 -1 2 0 1 -1 -3 -4 -4 -3 -1 -3 -3
Height
1526 1529 1534 1538 1542 1544 1546 1548 1551 1554 1557 1559 1560 1562 1564 1565 1568 1571 1572 1573 1573 1574 1574 1577 1577 1578 1578 1577 1578 1579 1578 1577 1576 1577 1576 1574 1575 1575 1575 1574 1573 1572 1572
1526 1530 1535 1539 1543 1546 1548 1550 1552 1553 1556 1559 1562 1564 1566 1568 1569 1573 1574 1575 1576 1576 1577 1580 1579 1580 1581 1581 1582 1580 1579 1579 1581 1579 1577 1575 1577 1578 1577 1576 1575 1575 1574
1525 1530 1536 1540 1543 1545 1548 1551 1553 1554 1556 1559 1562 1567 1568 1571 1571 1575 1576 1577 1579 1579 1580 1581 1581 1583 1584 1584 1585 1582 1583 1582 1584 1581 1580 1579 1579 1579 1578 1578 1577 1576 1576
1525 1530 1535 1538 1542 1546 1548 1551 1553 1555 1557 1559 1564 1566 1570 1572 1574 1575 1578 1580 1581 1581 1582 1582 1584 1586 1587 1586 1586 1585 1586 1585 1585 1583 1582 1581 1581 1581 1579 1580 1579 1579 1577
1526 1530 1535 1538 1542 1546 1549 1552 1554 1556 1559 1561 1565 1567 1572 1573 1575 1577 1580 1582 1583 1583 1585 1586 1587 1588 1589 1588 1589 1588 1589 1587 1587 1586 1585 1584 1584 1581 1581 1581 1580 1581 1579
1527 1531 1535 1539 1544 1547 1550 1552 1554 1556 1561 1563 1566 1568 1573 1573 1577 1579 1582 1583 1584 1586 1586 1589 1590 1590 1591 1590 1589 1590 1591 1590 1588 1588 1588 1586 1584 1584 1583 1581 1582 1580 1579
1527 1532 1536 1540 1544 1548 1550 1552 1556 1557 1561 1565 1566 1570 1575 1576 1579 1580 1582 1584 1586 1587 1589 1590 1592 1591 1592 1592 1592 1591 1591 1590 1590 1588 1588 1587 1586 1585 1585 1583 1582 1581 1580
1527 1530 1532 1537 1542 1547 1549 1551 1558 1560 1563 1566 1568 1573 1577 1580 1582 1582 1583 1585 1587 1589 1590 1592 1593 1593 1594 1594 1593 1592 1593 1591 1591 1590 1589 1589 1587 1585 1584 1584 1583 1583 1581
1527 1528 1529 1533 1537 1545 1557 1556 1561 1565 1564 1568 1572 1576 1579 1582 1583 1585 1585 1587 1589 1590 1591 1593 1594 1593 1595 1595 1594 1592 1592 1592 1590 1589 1589 1591 1587 1586 1584 1584 1584 1582 1582
1526 1526 1528 1530 1532 1537 1549 1563 1566 1565 1568 1570 1574 1577 1581 1584 1585 1585 1587 1588 1589 1591 1592 1594 1595 1595 1596 1595 1594 1594 1593 1593 1591 1589 1589 1589 1588 1587 1586 1585 1584 1584 1582
1527 1529 1532 1519 1535 1542 1549 1564 1566 1565 1569 1571 1574 1579 1582 1585 1586 1587 1588 1590 1590 1592 1593 1594 1595 1596 1596 1594 1594 1594 1592 1592 1591 1590 1589 1588 1588 1586 1586 1586 1584 1583 1583
1528 1531 1532 1536 1537 1540 1547 1560 1565 1567 1570 1574 1577 1579 1581 1586 1586 1589 1590 1590 1591 1593 1594 1594 1595 1595 1595 1595 1594 1594 1592 1591 1592 1589 1590 1589 1588 1588 1583 1583 1582 1582 1582
1529 1531 1534 1535 1538 1544 1549 1559 1567 1573 1575 1576 1578 1580 1581 1586 1586 1587 1588 1590 1591 1593 1594 1595 1594 1595 1595 1595 1593 1593 1592 1591 1591 1589 1588 1588 1588 1588 1586 1583 1581 1581 1580
1534 1535 1537 1542 1545 1552 1558 1565 1570 1573 1575 1578 1579 1581 1584 1585 1587 1588 1589 1590 1592 1594 1595 1594 1595 1594 1594 1592 1592 1593 1592 1590 1590 1588 1588 1586 1586 1587 1586 1583 1580 1580 1579
1538 1541 1542 1547 1552 1556 1562 1567 1570 1573 1576 1577 1580 1581 1584 1585 1587 1589 1589 1590 1592 1594 1595 1594 1594 1593 1593 1592 1591 1591 1592 1589 1588 1587 1587 1584 1584 1585 1584 1582 1580 1579 1577
1540 1543 1546 1551 1556 1558 1563 1566 1570 1573 1575 1577 1579 1581 1583 1584 1586 1588 1589 1590 1592 1593 1592 1593 1593 1593 1591 1591 1591 1590 1590 1589 1587 1586 1586 1583 1582 1582 1581 1580 1580 1579 1577
1541 1545 1548 1552 1557 1559 1562 1566 1569 1572 1574 1577 1578 1579 1583 1584 1586 1588 1589 1589 1590 1591 1591 1591 1592 1591 1590 1589 1589 1588 1587 1587 1586 1585 1584 1582 1581 1580 1579 1578 1577 1576 1575
1543 1546 1550 1553 1556 1559 1562 1565 1567 1570 1573 1576 1577 1579 1582 1583 1585 1587 1587 1587 1590 1590 1590 1590 1590 1589 1589 1588 1586 1586 1585 1584 1583 1582 1582 1581 1580 1579 1577 1577 1576 1575 1573
1543 1546 1549 1552 1555 1558 1561 1563 1567 1569 1572 1573 1576 1578 1580 1581 1585 1586 1585 1583 1585 1590 1589 1589 1588 1587 1586 1587 1584 1583 1582 1581 1581 1580 1580 1579 1578 1577 1576 1574 1573 1572 1570
1543 1545 1548 1551 1554 1557 1559 1562 1564 1567 1568 1572 1574 1576 1577 1580 1582 1584 1582 1582 1583 1588 1586 1586 1585 1585 1584 1584 1582 1580 1579 1578 1577 1577 1577 1576 1575 1573 1571 1570 1569 1568 1566
1541 1543 1545 1548 1551 1554 1556 1559 1561 1563 1566 1569 1571 1573 1575 1577 1578 1578 1580 1581 1583 1584 1583 1583 1582 1582 1581 1581 1580 1580 1577 1575 1574 1573 1573 1572 1571 1570 1568 1566 1565 1563 1561
1537 1540 1542 1545 1548 1551 1554 1558 1560 1562 1564 1567 1567 1569 1571 1572 1574 1575 1577 1580 1580 1580 1580 1580 1579 1578 1578 1578 1577 1576 1576 1573 1570 1569 1568 1568 1567 1567 1566 1564 1561 1559 1558
1531 1534 1538 1542 1545 1548 1551 1554 1556 1559 1561 1562 1562 1565 1566 1568 1569 1573 1576 1576 1576 1576 1576 1577 1578 1576 1572 1573 1573 1573 1572 1571 1569 1566 1566 1565 1564 1564 1563 1561 1559 1557 1555
1526 1531 1534 1537 1540 1544 1547 1550 1551 1553 1554 1557 1560 1561 1563 1564 1566 1569 1571 1571 1572 1572 1573 1574 1574 1574 1573 1570 1569 1567 1567 1566 1566 1565 1562 1562 1561 1561 1559 1558 1556 1553 1551
1524 1526 1529 1532 1536 1538 1542 1545 1548 1549 1551 1554 1557 1558 1559 1560 1562 1564 1565 1565 1565 1566 1567 1567 1570 1569 1568 1566 1563 1562 1562 1561 1560 1561 1560 1560 1558 1557 1555 1554 1552 1550 1548
1518 1521 1524 1527 1530 1533 1536 1539 1541 1544 1546 1549 1551 1552 1553 1555 1557 1559 1559 1559 1560 1560 1560 1561 1560 1564 1561 1560 1560 1558 1558 1558 1557 1556 1555 1555 1553 1553 1551 1550 1548 1546 1543